Location: Pensacola
(30.4142°N, 87.2155°W)
Time: 03:39:14
(UTC-05:00)

RS-44 - Visible Passes

Search period start: 14 April 2024 00:00
Search period end: 24 April 2024 00:00
Orbit: 1175 x 1510 km, 82.5° (Epoch: 13 April)

Date Brightness Start Highest point End Pass type
(mag) Time Alt. Az. Time Alt. Az. Time Alt. Az.
14 Apr ? 19:32:42 10° ESE 19:38:09 18° E 19:43:32 10° NE visible
14 Apr ? 21:21:43 10° S 21:30:37 76° W 21:39:25 10° N visible
14 Apr ? 23:22:45 10° W 23:25:14 11° WNW 23:27:44 10° NW visible
15 Apr ? 19:54:05 10° SE 20:01:30 31° E 20:08:49 10° NNE visible
15 Apr ? 21:46:01 10° SSW 21:54:30 48° W 22:02:54 10° N visible
16 Apr ? 20:16:34 10° SSE 20:25:01 50° E 20:33:19 10° NNE visible
16 Apr ? 22:11:03 10° SW 22:18:33 30° WNW 22:25:57 10° NNW visible
17 Apr ? 20:39:45 10° S 20:48:39 79° E 20:57:22 10° N visible
17 Apr ? 22:37:13 10° WSW 22:42:46 18° WNW 22:48:16 10° NNW visible
18 Apr ? 21:03:35 10° SSW 21:12:26 68° W 21:21:06 10° N visible
19 Apr ? 19:35:27 10° SSE 19:43:12 35° E 19:50:47 10° NNE visible
19 Apr ? 21:28:04 10° SSW 21:36:21 43° W 21:44:28 10° N visible
20 Apr ? 19:58:08 10° SSE 20:06:46 57° E 20:15:08 10° NNE visible
20 Apr ? 21:53:22 10° SW 22:00:25 26° WNW 22:07:22 10° NNW visible
21 Apr ? 20:21:31 10° S 20:30:27 88° E 20:39:05 10° N visible
21 Apr ? 22:20:04 10° WSW 22:24:41 15° WNW 22:29:16 10° NW visible
22 Apr ? 20:45:31 10° SSW 20:54:15 60° W 21:02:43 10° N visible
23 Apr ? 21:10:12 10° SW 21:18:12 37° WNW 21:25:59 10° NNW visible
